Track COSMOS 2426 (GLONASS) now! COSMOS 2426 (GLONASS) is classified as:
1 29671U 06062B 21023.77015508 .00000062 00000-0 00000-0 0 9998 2 29671 64.8931 260.4741 0020003 175.3829 142.6444 2.12962942109576